1279324831100,1.20375
1279324888508,1.20531
1279324948508,1.19114
1279325008508,1.20455
1279325068508,1.19741
1279325128508,1.19359
1279325188508,1.20078
1279325248508,1.19963
1279325308508,1.20133
1279325368508,1.18623
1279325428508,1.18998
1279325488508,1.19532
1279325548508,1.19987
1279325608508,1.20535
1279325668508,1.19357
1279325728508,1.18728
1279325788508,1.18556
1279325848508,1.19672
1279325908508,1.19516
1279325968508,1.19960
1279326028508,1.19982
1279326088508,1.19474
1279326148508,1.19817
1279326208508,1.20664
1279326268508,1.18681
1279326328508,1.18910
1279326388508,1.19720
1279326448508,1.20139
1279326508508,1.19992
1279326568508,1.19211
1279326628508,1.19618
1279326688508,1.18999
1279326748508,1.20539
1279326808508,1.19908
1279326868508,1.20399
1279326928508,1.18441
1279326988508,1.18459
1279327048508,1.20436
1279327108508,1.19528
1279327168508,1.19659
1279327228508,1.18934
1279327288508,1.20024
1279327348508,1.19012
1279327408508,1.20206
1279327468508,1.19857
1279327528508,1.19696
1279327588508,1.19506
1279327648508,1.19826
1279327708508,1.19960
1279327768508,1.19440
1279327828508,1.19640
1279327888508,1.20338
1279327948508,1.19747
1279328008508,1.19925
1279328068508,1.19038
1279328128508,1.19055
1279328188508,1.18830
1279328248508,1.18983
1279328308508,1.20519
1279328368508,1.19212
1279328427451,1.20526
1279328492027,1.19541
1279328552027,1.19594
1279328612027,1.18881
1279328672027,1.18982
1279328732027,1.18986
1279328792027,1.18667
1279328852027,1.19817
1279328912027,1.19273
1279328972027,1.18953
1279329032027,1.18457
1279329092027,1.20003
1279329152027,1.19375
1279329212027,1.18836
1279329272027,1.19398
1279329332026,1.19201
1279329392026,1.19118
1279329452026,1.18889
1279329512026,1.19519
1279329572026,1.19528
1279329632027,1.19550
1279329692027,1.18964
1279329752027,1.18262
1279329812027,1.21622
1279329872027,1.19596
1279329932027,1.19528
1279329992027,1.18495
1279330052027,1.19300
1279330112027,1.19486
1279330172027,1.20149
1279330232027,1.18931
1279330292027,1.18830
1279330352027,1.19667
1279330412027,1.20370
1279330472027,1.19215
1279330532027,1.19602
1279330592027,1.20158
1279330652026,1.19923
1279330712026,1.19946
1279330772026,1.20211
1279330832026,1.19853
1279330892026,1.18898
1279330952026,1.19613
1279331012027,1.19450
1279331072027,1.19187
1279331132027,1.19123
1279331192027,1.19220
1279331252027,1.20116
1279331312027,1.19525
1279331372027,1.19466
1279331432027,1.18172
1279331492027,1.19791
1279331552027,1.18698
1279331612027,1.19156
1279331672027,1.20418
1279331732027,1.18992
1279331792027,1.19054
1279331852027,1.18882
1279331912027,1.18863
1279331972027,1.19448
1279332032035,1.18880
1279332092035,1.19307
1279332152035,1.19949
1279332212035,1.19391
1279332272035,1.18995
1279332332035,1.19264
1279332392035,1.19116
1279332452035,1.19271
1279332512035,1.19936
1279332572035,1.18254
1279332632035,1.19276
1279332692035,1.21752
1279332752035,1.18899
1279332812035,1.18898
1279332872035,1.19221
1279332932035,1.19279
1279332992035,1.18923
1279333052035,1.19848
1279333112035,1.19868
1279333172035,1.18918
1279333232035,1.19426
1279333292035,1.18797
1279333352035,1.18662
1279333412035,1.19782
1279333472035,1.19501
1279333532035,1.19023
1279333592035,1.19613
1279333652035,1.18880
1279333712035,1.19483
1279333772035,1.19335
1279333832035,1.18190
1279333892035,1.19338
1279333952035,1.20009
1279334012035,1.18688
1279334072035,1.19040
1279334132035,1.19534
1279334192035,1.20018
1279334252035,1.19317
1279334312035,1.19776
1279334372035,1.19671
1279334432035,1.19475
1279334492035,1.18882
1279334552035,1.18641
1279334612035,1.19554
1279334672035,1.19414
1279334732035,1.19246
1279334792035,1.20141
1279334852035,1.19799
1279334912035,1.18765
1279334972035,1.19719
1279335032035,1.19377
1279335092035,1.19112
1279335152035,1.18788
1279335212035,1.19125
1279335272035,1.19699
1279335332035,1.20299
1279335392035,1.19225
1279335452035,1.19409
1279335512035,1.20150
1279335572035,1.18785
1279335632044,1.19949
1279335692044,1.19299
1279335752044,1.19007
1279335812044,1.20182
1279335872044,1.19157
1279335932044,1.19503
1279335992044,1.19299
1279336052044,1.20143
1279336112044,1.19402
1279336172044,1.19478
1279336232044,1.18986
1279336292044,1.19321
1279336352044,1.19261
1279336412044,1.19630
1279336472044,1.19246
1279336532044,1.19027
1279336592044,1.18977
1279336652044,1.20388
1279336712044,1.19838
1279336772044,1.19593
1279336832044,1.18880
1279336892044,1.19783
1279336952044,1.19234
1279337012044,1.20144
1279337072044,1.18603
1279337132044,1.19380
1279337192044,1.19335
1279337252044,1.19653
1279337312044,1.18885
1279337372044,1.19271
1279337432044,1.19974
1279337492044,1.18800
1279337552044,1.19483
1279337612044,1.19202
1279337672044,1.18991
1279337732044,1.18251
1279337792044,1.19557
1279337852044,1.19482
1279337912044,1.19782
1279337972044,1.19070
1279338032044,1.19951
1279338092044,1.19520
1279338152044,1.19912
1279338212044,1.19759
1279338272044,1.18515
1279338332044,1.19324
1279338392044,1.18909
1279338452044,1.20839
1279338512044,1.20156
1279338572044,1.19814
1279338632044,1.19237
1279338692044,1.19801
1279338752044,1.21382
1279338812044,1.20133
1279338872044,1.20044
1279338932044,1.19690
1279338992044,1.18435
1279339052044,1.19700
1279339112044,1.20109
1279339172044,1.19581
1279339232053,1.19616
1279339292053,1.19952
1279339352053,1.19474
1279339412053,1.19622
1279339472053,1.19601
1279339532053,1.19758
1279339592053,1.19862
1279339652053,1.19423
1279339712053,1.20445
1279339772053,1.19753
1279339832053,1.19906
1279339892053,1.19811
1279339952053,1.19296
1279340012053,1.20809
1279340072053,1.20287
1279340132053,1.19835
1279340192053,1.19947
1279340252053,1.19906
1279340312053,1.19766
1279340372053,1.19923
1279340432053,1.19998
1279340492053,1.20148
1279340552053,1.19183
1279340612053,1.19719
1279340672053,1.19109
1279340732053,1.19935
1279340792053,1.19259
1279340852053,1.20635
1279340912053,1.20234
1279340972053,1.19606
1279341032053,1.19220
1279341092053,1.19787
1279341152053,1.19930
1279341212053,1.19536
1279341272053,1.19185
1279341332053,1.18991
1279341392053,1.20091
1279341452053,1.19380
1279341512053,1.18640
1279341572053,1.19501
1279341632053,1.19312
1279341692053,1.19992
1279341752053,1.19612
1279341812053,1.19705
1279341872053,1.20015
1279341932053,1.20274
1279341992053,1.19888
1279342052053,1.19638
1279342112053,1.19274
1279342172053,1.20375
1279342232053,1.20062
1279342292053,1.20242
1279342352053,1.19377
1279342412053,1.19098
1279342472053,1.19632
1279342532053,1.18766
1279342592053,1.19815
1279342652053,1.19586
1279342712053,1.19040
1279342772053,1.19574
1279342832061,1.19886
1279342892061,1.19427
1279342952061,1.19724
1279343012061,1.19338
1279343072061,1.19044
1279343132061,1.20492
1279343192061,1.19454
1279343252061,1.19545
1279343312061,1.19401
1279343372061,1.18857
1279343432061,1.19734
1279343492061,1.20120
1279343552061,1.19375
1279343612061,1.19761
1279343672061,1.18852
1279343732061,1.20528
1279343792061,1.19906
1279343852061,1.19746
1279343912061,1.19658
1279343972061,1.19946
1279344032061,1.19647
1279344092061,1.19068
1279344152061,1.18699
1279344212061,1.19092
1279344272061,1.18973
1279344332061,1.19861
1279344392061,1.18833
1279344452061,1.19516
1279344512061,1.20064
1279344572061,1.18661
1279344632061,1.20054
1279344692061,1.19731
1279344752061,1.19336
1279344812061,1.19144
1279344872061,1.18800
1279344932061,1.19387
1279344992061,1.19606
1279345052061,1.19463
1279345112061,1.20084
1279345172061,1.20243
1279345232061,1.19054
1279345292061,1.20022
1279345352061,1.19067
1279345412061,1.20964
1279345472061,1.20033
1279345532061,1.18715
1279345592061,1.19315
1279345652061,1.20493
1279345712061,1.19583
1279345772061,1.19325
1279345832061,1.20378
1279345892061,1.19751
1279345952061,1.20116
1279346012061,1.20160
1279346072061,1.21068
1279346132061,1.20132
1279346192061,1.19251
1279346252061,1.20289
1279346312061,1.20777
1279346372061,1.19959
1279346432069,1.19572
1279346492069,1.19395
1279346552069,1.19970
1279346612069,1.19826
1279346672069,1.18654
1279346732069,1.20331
1279346792069,1.19076
1279346852069,1.19612
1279346912069,1.19106
1279346972069,1.18526
1279347032069,1.19196
1279347092069,1.20002
1279347152069,1.19144
1279347212069,1.28187
1279347272069,1.19942
1279347332069,1.19916
1279347392069,1.19685
1279347452069,1.19344
1279347512069,1.20011
1279347572069,1.19875
1279347632069,1.19852
1279347692069,1.20392
1279347752069,1.18747
1279347812069,1.19433
1279347872069,1.20167
1279347932069,1.19500
1279347992069,1.19361
1279348052069,1.19363
1279348112069,1.19634
1279348172069,1.19706
1279348232069,1.19786
1279348292069,1.18752
1279348352069,1.19959
1279348412069,1.19245
1279348472069,1.18902
1279348532069,1.18869
1279348592069,1.19714
1279348652069,1.18688
1279348712069,1.18930
1279348772069,1.19328
1279348832069,1.19660
1279348892069,1.18703
1279348952069,1.20548
1279349012069,1.19373
1279349072069,1.19475
1279349132069,1.19244
1279349192069,1.19679
1279349252069,1.18973
1279349312069,1.18438
1279349372069,1.20404
1279349432069,1.19895
1279349492069,1.19245
1279349552069,1.19319
1279349612069,1.19857
1279349672069,1.19415
1279349732069,1.19632
1279349792069,1.19290
1279349852069,1.18542
1279349912069,1.19239
1279349972069,1.19346
1279350032078,1.19327
1279350092078,1.19061
1279350152078,1.19375
1279350212078,1.18933
1279350272078,1.19868
1279350332078,1.18771
1279350392078,1.18316
1279350452078,1.19386
1279350512078,1.21405
1279350572078,1.21564
1279350632078,1.19137
1279350692078,1.19564
1279350752078,1.19487
1279350812078,1.19250
1279350872078,1.19717
1279350932078,1.22249
1279350992078,1.19425
1279351052078,1.19338
1279351112078,1.19165
1279351172078,1.18693
1279351232078,1.19190
1279351292078,1.19027
1279351352078,1.19041
1279351412078,1.18792
1279351472078,1.20586
1279351532078,1.20402
1279351592078,1.20432
1279351652078,1.20526
1279351712078,1.19559
1279351772078,1.19269
1279351832078,1.20467
1279351892078,1.19980
1279351952078,1.19151
1279352012078,1.19802
1279352072078,1.19467
1279352132078,1.19314
1279352192078,1.19438
1279352252078,1.19663
1279352312078,1.19660
1279352372078,1.19842
1279352432078,1.19715
1279352492078,1.19429
1279352552078,1.20286
1279352612078,1.19382
1279352672078,1.19373
1279352732078,1.19757
1279352792078,1.19343
1279352852078,1.20630
1279352912078,1.19401
1279352972078,1.21101
1279353032078,1.19419
1279353092078,1.19671
1279353152078,1.20711
1279353212078,1.19341
1279353272078,1.19472
1279353332078,1.19579
1279353392078,1.20388
1279353452078,1.19007
1279353512078,1.19639
1279353572078,1.19353
1279353632086,1.20031
1279353692086,1.19045
1279353752086,1.19818
1279353812086,1.20134
1279353872086,1.20038
1279353932086,1.19904
1279353992086,1.19167
1279354052086,1.19690
1279354112086,1.18879
1279354172086,1.18584
1279354232086,1.19480
1279354292086,1.20023
1279354352086,1.19607
1279354412086,1.19531
1279354472086,1.19676
1279354532086,1.20086
1279354592086,1.19680
1279354652086,1.19091
1279354712086,1.19072
1279354772086,1.19036
1279354832086,1.19366
1279354892086,1.19949
1279354952086,1.19864
1279355012086,1.19334
1279355072086,1.20106
1279355132086,1.20554
1279355192086,1.20370
1279355252086,1.19854
1279355312086,1.19645
1279355372086,1.20442
1279355432086,1.21166
1279355492086,1.20172
1279355552086,1.20835
1279355612086,1.19978
1279355672086,1.20148
1279355732086,1.19331
1279355792086,1.20030
1279355852086,1.20082
1279355912086,1.20133
1279355972086,1.21306
1279356032086,1.20793
1279356092086,1.20958
1279356152086,1.18736
1279356212086,1.20541
1279356272086,1.20097
1279356332086,1.20507
1279356392086,1.20503
1279356452086,1.19745
1279356512086,1.19476
1279356572086,1.20405
1279356632086,1.19982
1279356692086,1.20880
1279356752086,1.20094
1279356812086,1.20536
1279356872086,1.20014
1279356932086,1.19901
1279356992086,1.20943
1279357052086,1.19254
1279357112086,1.19424
1279357172086,1.20250
1279357232094,1.20715
1279357292094,1.19234
1279357352094,1.19696
1279357412094,1.19396
1279357472094,1.19569
1279357532094,1.19388
1279357592094,1.20320
1279357652094,1.20022
1279357712094,1.19205
1279357772094,1.19113
1279357832094,1.19236
1279357892094,1.18638
1279357952094,1.19835
1279358012094,1.19797
1279358072094,1.19906
1279358132094,1.18591
1279358192094,1.19416
1279358252094,1.19047
1279358312094,1.19952
1279358372094,1.19336
1279358432094,1.18376
1279358492094,1.17071
1279358552094,1.17477
1279358612094,1.17978
1279358672094,1.17526
1279358732094,1.17061
1279358792094,1.17585
1279358852094,1.17880
1279358912094,1.17098
1279358972094,1.17044
1279359032094,1.16670
1279359092094,1.17564
1279359152094,1.18005
1279359212094,1.18496
1279359272094,1.17614
1279359332094,1.18308
1279359392094,1.17414
1279359452094,1.17932
1279359512094,1.18522
1279359572094,1.18848
1279359632094,1.18557
1279359692094,1.18408
1279359752094,1.18458
1279359812094,1.17528
1279359872094,1.17699
1279359932094,1.17715
1279359992094,1.17787
1279360052094,1.21033
1279360112094,1.18044
1279360172094,1.17380
1279360232094,1.17607
1279360292094,1.18241
1279360352094,1.18135
1279360412094,1.18243
1279360472094,1.19915
1279360532094,1.19299
1279360592094,1.17282
1279360652094,1.17631
1279360712094,1.18783
1279360772094,1.18622
1279360832102,1.18127
1279360892102,1.18267
1279360952102,1.18688
1279361012102,1.19110
1279361072102,1.19168
1279361132102,1.19215
1279361192102,1.18452
1279361252102,1.19239
1279361312102,1.19103
1279361372102,1.17843
1279361432102,1.18070
1279361492102,1.17939
1279361552102,1.18287
1279361612102,1.18267
1279361672102,1.18633
1279361732102,1.17809
1279361792102,1.19190
1279361852102,1.19393
1279361912102,1.19138
1279361972102,1.18265
1279362032102,1.19319
1279362092102,1.18658
1279362152102,1.19629
1279362212102,1.19317
1279362272102,1.18917
1279362332102,1.19325
1279362392102,1.19651
1279362452102,1.18874
1279362512102,1.19223
1279362572102,1.19171
1279362632102,1.18624
1279362692102,1.20005
1279362752102,1.19372
1279362812102,1.19091
1279362872102,1.20517
1279362932102,1.18886
1279362992102,1.19235
1279363052102,1.19101
1279363112102,1.18817
1279363172102,1.18715
1279363232102,1.18326
1279363292102,1.19229
1279363352102,1.18039
1279363412102,1.18008
1279363472102,1.18220
1279363532102,1.18520
1279363592102,1.18217
1279363652102,1.18980
1279363712102,1.18633
1279363772102,1.18594
1279363832102,1.18236
1279363892102,1.18529
1279363952102,1.19771
1279364012102,1.18328
1279364072102,1.18486
1279364132102,1.18047
1279364192102,1.18702
1279364252102,1.18497
1279364312102,1.18391
1279364372102,1.18334
1279364432111,1.16920
1279365032111,1.17975
1279365092111,1.18717
1279365152111,1.18067
1279365212111,1.18778
1279365272111,1.18217
1279365332111,1.18520
1279365392111,1.19295
1279365452111,1.18502
1279365512111,1.17837
1279365572111,1.17941
1279365632111,1.18251
1279365692111,1.17965
1279365752111,1.18969
1279365812111,1.19656
1279365872111,1.19167
1279365932111,1.18258
1279365992111,1.18664
1279366052111,1.19296
1279366112111,1.18360
1279366172111,1.18560
1279366232111,1.19245
1279366292111,1.19722
1279366352111,1.19790
1279366412111,1.20906
1279366472111,1.19480
1279366532111,1.19482
1279366592111,1.18991
1279366652111,1.19108
1279366712111,1.19362
1279366772111,1.19686
1279366832111,1.19295
1279366892111,1.18536
1279366952111,1.18360
1279367012111,1.18798
1279367072111,1.19041
1279367132111,1.18685
1279367192111,1.18784
1279367252111,1.18711
1279367312111,1.17669
1279367372111,1.18335
1279367432111,1.18560
1279367492111,1.18102
1279367552111,1.18101
1279367612111,1.22006
1279367672111,1.18591
1279367732111,1.18614
1279367792111,1.17480
1279367852111,1.19390
1279367912111,1.18423
1279367972111,1.18595
1279371632127,1.19811
1279371692127,1.18308
1279371752127,1.19608
1279371812127,1.19799
1279371872127,1.18586
1279371932127,1.18552
1279371992127,1.19583
1279372052127,1.18368
1279372112127,1.18836
1279372172127,1.18252
1279372232127,1.18368
1279372292127,1.18958
1279372352127,1.18186
1279372412127,1.18503
1279372472127,1.18483
1279372532127,1.18984
1279372592127,1.18114
1279372652127,1.18996
1279372712127,1.19137
1279372772127,1.18460
1279372832127,1.18212
1279372892127,1.18629
1279372952127,1.18403
1279373012127,1.18374
1279373072127,1.18431
1279373132127,1.19459
1279373192127,1.19129
1279373252127,1.18603
1279373312127,1.18221
1279373372127,1.18687
1279373432127,1.19598
1279373492127,1.19544
1279373552127,1.18510
1279373612127,1.18791
1279373672127,1.19007
1279373732127,1.18356
1279373792127,1.18496
1279373852127,1.17508
1279373912127,1.18137
1279373972127,1.18563
1279374032127,1.18660
1279374092127,1.19181
1279374152127,1.18189
1279374212127,1.17618
1279374272127,1.18192
1279374332127,1.18648
1279374392127,1.18310
1279374452127,1.18478
1279374512127,1.17321
1279374572127,1.18302
1279374632127,1.17573
1279374692127,1.18996
1279374752127,1.18066
1279374812127,1.19340
1279374872127,1.17897
1279374932127,1.18005
1279374992127,1.18961
1279375052127,1.17859
1279375112127,1.17603
1279375172127,1.18615
1279375232136,1.18312
1279375292136,1.18048
1279375352136,1.17792
1279375412136,1.17243
1279375472136,1.17545
1279375532136,1.18265
1279375592136,1.18776
1279375652136,1.17721
1279375712136,1.17965
1279375772136,1.17276
1279375832136,1.17871
1279375892136,1.18914
1279375952136,1.18266
1279376012136,1.17587
1279376072136,1.17720
1279376132136,1.18040
1279376192136,1.17852
1279376252136,1.17425
1279376312136,1.17782
1279376372136,1.17682
1279376432136,1.18430
1279376492136,1.17360
1279376552136,1.16657
1279376612136,1.17428
1279376672136,1.18076
1279376732136,1.17652
1279376792136,1.18379
1279376852136,1.18329
1279376912136,1.18080
1279376972136,1.16715
1279377032136,1.17783
1279377092136,1.18219
1279377152136,1.17806
1279377212136,1.17684
1279377272136,1.17352
1279377332136,1.19526
1279377392136,1.18319
1279377452136,1.18666
1279377512136,1.17403
1279377572136,1.16676
1279377632136,1.26094
1279377692136,1.17963
1279377752136,1.17616
1279377812136,1.16788
1279377872136,1.18900
1279377932136,1.17746
1279377992136,1.18279
1279378052136,1.17912
1279378112136,1.17859
1279378172136,1.20589
1279378232136,1.16833
1279378292136,1.18759
1279378352136,1.18241
1279378412136,1.17399
1279378472136,1.17347
1279378532136,1.17588
1279378592136,1.19625
1279378652136,1.19430
1279378712136,1.18756
1279378772136,1.16792
1279378832144,1.17576
1279378892144,1.19391
1279378952144,1.18435
1279379012144,1.18811
1279379072144,1.19133
1279379132144,1.19938
1279379192144,1.18762
1279379252144,1.18224
1279379312144,1.18289
1279379372144,1.18159
1279379432144,1.18028
1279379492144,1.18020
1279379552144,1.19345
1279379612144,1.18472
1279379672144,1.18349
1279379732144,1.17821
1279379792144,1.19031
1279379852144,1.19361
1279379912144,1.18655
1279379972144,1.17958
1279380032144,1.19974
1279380092144,1.17792
1279380152144,1.18273
1279380212144,1.18559
1279380272144,1.18518
1279380332144,1.18719
1279380392144,1.18867
1279380452144,1.19328
1279380512144,1.19892
1279380572144,1.18755
1279380632144,1.18589
1279380692144,1.19014
1279380752144,1.19311
1279380812144,1.19691
1279380872144,1.18463
1279380932144,1.19023
1279380992144,1.18083
1279381052144,1.18635
1279381112144,1.18544
1279381172144,1.18460
1279381232144,1.19151
1279381292144,1.18852
1279381352144,1.18246
1279381412144,1.18882
1279381472144,1.18460
1279381532144,1.18504
1279381592144,1.18685
1279381652144,1.19760
1279381712144,1.18731
1279381772144,1.19224
1279381832144,1.18792
1279381892144,1.19221
1279381952144,1.21863
1279382012144,1.18319
1279382072144,1.19083
1279382132144,1.18793
1279382192144,1.18463
1279382252144,1.19543
1279382312144,1.18834
1279382372144,1.18428
1279382432153,1.17754
1279382492153,1.18428
1279382552153,1.18915
1279382612153,1.18281
1279382672153,1.19436
1279382732153,1.17661
1279382792153,1.18204
1279382852153,1.18879
1279382912153,1.18207
1279382972153,1.18556
1279383032153,1.18524
1279383092153,1.18275
1279383152153,1.17926
1279383212153,1.18796
1279383272153,1.18571
1279383332153,1.18145
1279383392153,1.18033
1279383452153,1.19202
1279383512153,1.18247
1279383572153,1.18616
1279383632153,1.18001
1279383692153,1.18164
1279383752153,1.17429
1279383812153,1.18457
1279383872153,1.18373
1279383932153,1.18574
1279383992153,1.17854
1279384052153,1.18787
1279384112153,1.19573
1279384172153,1.19134
1279384232153,1.18833
1279384292153,1.18476
1279384352153,1.18927
1279384412153,1.18308
1279384472153,1.18288
1279384532153,1.17560
1279384592153,1.19350
1279384652153,1.18657
1279384712153,1.18132
1279384772153,1.17148
1279384832153,1.17949
1279384892153,1.18508
1279384952153,1.17898
1279385012153,1.18478
1279385072153,1.18529
1279385132153,1.18848
1279385192153,1.18872
1279385252153,1.17965
1279385312153,1.18126
1279385372153,1.17943
1279385432153,1.18040
1279385492153,1.18865
1279385552153,1.18042
1279385612153,1.17822
1279385672153,1.19227
1279385732153,1.18015
1279385792153,1.17808
1279385852153,1.18384
1279385912153,1.17814
1279385972153,1.18723
1279386032162,1.17761
1279386092163,1.17896
1279386152163,1.17323
1279386212163,1.18335
1279386272163,1.17939
1279386332163,1.17088
1279386392163,1.17469
1279386452163,1.17356
1279386512163,1.17386
1279386572163,1.17171
1279386632163,1.17012
1279386692163,1.17658
1279386752163,1.18197
1279386812163,1.17342
1279386872163,1.17029
1279386932163,1.17191
1279386992163,1.18208
1279387052163,1.16600
1279387112163,1.17224
1279387172162,1.17122
1279387232162,1.16633
1279387292162,1.17007
1279387352162,1.17591
1279387412163,1.17167
1279387472163,1.17139
1279387532163,1.16762
1279387592163,1.17447
1279387652163,1.16592
1279387712163,1.17177
1279387772163,1.17469
1279387832163,1.17350
1279387892163,1.17357
1279387952163,1.17941
1279388012163,1.16987
1279388072163,1.18294
1279388132163,1.18168
1279388192163,1.17657
1279388252163,1.18645
1279388312163,1.18209
1279388372163,1.18420
1279388432163,1.18388
1279388492162,1.19745
1279388552162,1.19377
1279388612162,1.19628
1279388672162,1.19995
1279388732162,1.19769
1279388792163,1.20647
1279388852163,1.21475
1279388912163,1.21758
1279388972163,1.20353
1279389032163,1.20959
1279389092163,1.21690
1279389152163,1.21170
1279389212163,1.21059
1279389272163,1.21363
1279389332163,1.21947
1279389392163,1.23444
1279389452163,1.22796
1279389512163,1.24330
1279389572163,1.24092
1279389632172,1.24424
1279389692172,1.24646
1279389752172,1.24330
1279389812172,1.26383
1279389872172,1.24903
1279389932172,1.24919
1279389992172,1.25996
1279390052172,1.25101
1279390112172,1.25797
1279390172172,1.27016
1279390232172,1.26646
1279390292172,1.26679
1279390352172,1.27189
1279390412172,1.28684
1279390472172,1.27255
1279390532172,1.27795
1279390592172,1.28530
1279390652172,1.28151
1279390712172,1.27107
1279390772172,1.27516
1279390832172,1.26746
1279390892172,1.27289
1279390952172,1.26900
1279391012172,1.25360
1279391072172,1.25701
1279391132172,1.26767
1279391192172,1.26078
1279391252172,1.25016
1279391312172,1.26085
1279391372172,1.25624
1279391432172,1.26832
1279391492172,1.25588
1279391552172,1.25049
1279391612172,1.25938
1279391672172,1.25530
1279391732172,1.26824
1279391792172,1.26401
1279391852172,1.25503
1279391912172,1.26332
1279391972172,1.25316
1279392032172,1.24982
1279392092172,1.25515
1279392152172,1.25744
1279392212172,1.25697
1279392272172,1.25791
1279392332172,1.25714
1279392392172,1.25724
1279392452172,1.25032
1279392512172,1.25791
1279392572172,1.25622
1279392632172,1.24763
1279392692172,1.25181
1279392752172,1.26390
1279392812172,1.25716
1279392872172,1.25022
1279392932172,1.24706
1279392992172,1.24285
1279393052172,1.24660
1279393112172,1.24082
1279393172172,1.24641
1279393232182,1.25033
1279393292182,1.24686
1279393352182,1.24790
1279393412182,1.25117
1279393472182,1.24349
1279393532182,1.24019
1279393592182,1.23781
1279393652182,1.23149
1279393712182,1.24045
1279393772182,1.23490
1279393832182,1.23960
1279393892182,1.24829
1279393952182,1.23461
1279394012182,1.22564
1279394072182,1.22957
1279394132182,1.22894
1279394192182,1.23191
1279394252182,1.23128
1279394312182,1.22733